826  
NZUS99 KIND 182209  
HRRIND  
 
WEATHER ROUNDUP FOR INDIANA AND SURROUNDING STATES  
NATIONAL WEATHER SERVICE INDIANAPOLIS IN  
600 PM EDT THU JUL 18 2019  
   
..INDIANA
 
 
 
CITY SKY/WX TMP DP RH WIND PRES REMARKS  
INDIANAPOLIS FAIR 91 74 57 S14 29.87F HX 100  
EAGLE CREEK FAIR 92 71 50 S10 29.87S HX 98  
ZIONSVILLE FAIR 91 74 57 S14 29.87F HX 100  
FISHERS FAIR N/A N/A N/A S8 29.86F  
GREENWOOD FAIR 90 73 57 S10 29.90S HX 98  
SHELBYVILLE FAIR 91 72 53 S10 29.89F HX 98  

 
 
CITY SKY/WX TMP DP RH WIND PRES REMARKS  
LAFAYETTE FAIR 90 76 63 SW12G20 29.81F HX 101  
KOKOMO HAZE 91 74 57 S15G21 29.84F VSB 1/2 HX 100  
CRAWFORDSVILLE FAIR 87 76 69 S14 29.86F HX 98  
MUNCIE FAIR 92 75 57 S14 29.85F HX 103  
GREENCASTLE FAIR 88 73 62 S7 29.89S HX 96  
TERRE HAUTE FAIR 90 77 65 S12 29.87F HX 103  
BLOOMINGTON FAIR 91 78 65 S8 29.89F HX 106  
COLUMBUS SUNNY 91 70 49 S5 29.90F HX 97  
BEDFORD N/A 91 72 52 S7 29.91F HX 98  
NORTH VERNON FAIR 90 73 58 SE7 29.92F HX 98  

 
 
CITY SKY/WX TMP DP RH WIND PRES REMARKS  
GARY MOSUNNY 86 75 70 S12G23 29.79F HX 95  
VALPARAISO FAIR 88 75 65 S13 29.80F HX 97  
LA PORTE FAIR N/A N/A N/A SW16G22 29.79S  
MICHIGAN CITY FAIR 84 59 42 S15G24 29.77S  
SOUTH BEND FAIR 83 74 74 S14G23 29.79S  
ELKHART SUNNY N/A N/A N/A SW9 29.79S  
GOSHEN FAIR 84 73 69 S15G21 29.79F HX 90  
ANGOLA FAIR 81 N/A N/A S14G20 29.80F  
KENDALLVILLE FAIR 82 72 70 S13G18 29.81F  
AUBURN FAIR 81 73 78 S7 29.82F  
RENSSELAER FAIR 86 77 74 S12 29.81F HX 97  
KNOX FAIR 84 73 70 MISG 29.79F HX 91  
PLYMOUTH SUNNY 84 75 74 S15G24 29.77F HX 92  
ROCHESTER FAIR 88 75 66 S8 29.82F HX 97  
WARSAW FAIR 82 73 74 S8 29.80F  
FORT WAYNE PTSUNNY 84 76 76 S12 29.83F HX 93  
MONTICELLO FAIR 89 76 65 S6 29.81F HX 100  
LOGANSPORT FAIR 90 73 58 S8 29.83F HX 98  
PERU/GRISSOM FAIR 92 74 55 S14G22 29.82F HX 102  
HUNTINGTON FAIR N/A N/A N/A S13 29.82F  
MARION FAIR N/A N/A N/A SE3 29.85F  
RICHMOND FAIR 86 82 89 S10 29.93F HX 105  
BATESVILLE SUNNY 90 73 58 S7 29.92F HX 98  
WASHINGTON FAIR 90 77 64 S7 29.90F HX 103  
FRENCH LICK FAIR 88 73 62 S3 29.94S HX 96  
MADISON FAIR 90 72 55 S5 29.96F HX 96  
HUNTINGBURG FAIR 88 79 74 S10 29.94S HX 103  
JEFFERSONVILLE FAIR 92 70 48 CALM 29.93S HX 98  
EVANSVILLE FAIR 87 75 67 S10G17 29.94S HX 96  

 
   
..ILLINOIS
 
 
 
CITY SKY/WX TMP DP RH WIND PRES REMARKS  
CHICAGO FAIR 86 74 67 S23G31 29.75F HX 94  
MOLINE FAIR 92 77 61 S15G22 29.74F HX 105  
ROCKFORD CLOUDY 86 76 71 SW10 29.79S HX 96  
KANKAKEE FAIR 88 77 70 S7 29.80F HX 100  
PEORIA FAIR 91 77 63 SW20G26 29.79F HX 104  
BLOOMINGTON FAIR 89 79 72 S21 29.82F HX 104  
CHAMPAIGN FAIR 89 77 67 S14G25 29.84F HX 101  
RANTOUL PTSUNNY 91 77 64 S9G18 29.83S HX 103  
DANVILLE PTSUNNY 90 77 66 S12G21 29.82F HX 103  
QUINCY MOSUNNY 92 77 61 S15G22 29.81S HX 105  
SPRINGFIELD FAIR 91 78 65 SW15G28 29.82F HX 106  
DECATUR FAIR 90 75 61 SW20G29 29.84F HX 100  
MATTOON FAIR 89 75 63 S9G26 29.85F HX 99  
PARIS FAIR 91 80 70 S12G18 29.86F HX 107  
EFFINGHAM FAIR 92 70 48 S10 29.88F HX 97  
ROBINSON FAIR 89 79 72 S12 29.89F HX 103  
OLNEY FAIR 90 78 67 S12 29.89F HX 104  
LAWRENCEVILLE FAIR 90 77 65 S12 29.89F HX 103  
MOUNT VERNON FAIR 91 79 67 SW14 29.90F HX 107  
FAIRFIELD FAIR 90 78 67 S7 29.89F HX 104  
MOUNT CARMEL FAIR 88 78 72 SW13 29.90S HX 100  
CARMI FAIR 88 77 70 S12G17 29.92S HX 100  

 
   
..KENTUCKY
 
 
 
CITY SKY/WX TMP DP RH WIND PRES REMARKS  
LOUISVILLE FAIR 94 71 47 W8 29.93S HX 101  
PADUCAH FAIR 89 77 67 SW8 29.94F HX 101  
OWENSBORO FAIR 87 79 76 S13 29.95F HX 101  
FORT KNOX FAIR 90 74 58 CALM 29.96S HX 99  
LEXINGTON FAIR 91 72 53 MISG 29.98S HX 98  
BOWLING GREEN FAIR 90 75 61 S8 29.98S HX 100  
JACKSON FAIR 78 75 90 CALM 30.00S  

 
   
..OHIO
 
 
 
CITY SKY/WX TMP DP RH WIND PRES REMARKS  
CINCINNATI PTSUNNY 86 69 56 E9 29.95S HX 90  
DAYTON PTSUNNY 81 72 74 SE10 29.92F  
TOLEDO FAIR 82 73 74 VRB6 29.81S  
DEFIANCE FAIR 82 72 71 S10 29.81R  
FINDLAY FAIR 79 74 84 S14 29.81F  
LIMA FAIR 77 72 84 S14 29.84F  
WRIGHT-PAT AFB PTSUNNY 78 72 82 E5 29.93F  
COLUMBUS CLOUDY 87 71 58 W10 29.92S HX 93  
CLEVELAND PTSUNNY 87 71 58 S10 29.86F HX 93  

 
   
..MICHIGAN
 
 
 
CITY SKY/WX TMP DP RH WIND PRES REMARKS  
DETROIT PTSUNNY 82 72 71 S9 29.80F  
GRAND RAPIDS FAIR 86 72 62 SW9 29.78R HX 92  
LANSING FAIR 84 70 62 S12 29.80R  
KALAMAZOO FAIR 85 70 60 S14 29.79R  
BATTLE CREEK FAIR 85 72 65 S13 29.80R HX 91  
MARSHALL FAIR 83 77 80 S7 29.80R HX 92  
JACKSON FAIR 84 72 67 S13 29.81S  
BENTON HARBOR FAIR 84 72 67 SW13G24 29.76S  
STURGIS FAIR 83 74 73 SW12 29.79S  
COLDWATER FAIR 82 72 73 S5 29.81S  
HILLSDALE FAIR 81 71 71 S7 29.83R  

 
   
..OTHER LOCATIONS
 
 
 
CITY SKY/WX TMP DP RH WIND PRES REMARKS  
SAINT LOUIS MO MOSUNNY 95 72 47 SW15 29.85F HX 103  
CAPE GIRARDEAU FAIR 87 78 74 S8 29.92F HX 100  
MILWAUKEE WI FAIR 86 72 62 SW22G32 29.75R HX 92  
NASHVILLE TN PTSUNNY 78 73 84 S7 30.03R THUNDER  

 
 
 
 
CLICK HERE TO GO TO PREVIOUS BULLETINS.

The Nexlab IN Page Main Text Page